Jaipur, India

11:16 AM IST on May 23, 2017 (GMT +0530)
Jaipur

Weather History for VIJP - May, 2012

Change the Weather History Date:

Thursday, May 24, 2012

  Actual Average Record
Temperature  
Mean Temperature 96 °F -  
Max Temperature 109 °F - - ()
Min Temperature 83 °F - - ()
Cooling Degree Days 31    
Growing Degree Days 46 (Base 50)    
Moisture  
Dew Point 50 °F    
Average Humidity 20    
Maximum Humidity 33    
Minimum Humidity 4    
Precipitation  
Precipitation 0.00 in - - ()
Sea Level Pressure  
Sea Level Pressure 29.60 in    
Wind  
Wind Speed 4 mph ()    
Max Wind Speed 15 mph    
Max Gust Speed 21 mph    
Visibility 2.6 miles    
Events      
T = Trace of Precipitation, MM = Missing Value Source: Averaged Metar Reports

Daily Weather History Graph

Daily Weather History Graph

Search for Another Location

Airport or City:

Trip Planner

Search our weather history database for the weather conditions in past years. The results will help you decide how hot, cold, wet, or windy it might be!

Date:

Astronomy

May. 24, 2012 Rise Set
Actual Time 5:35 AM IST 7:12 PM IST
Civil Twilight 5:09 AM IST 7:37 PM IST
Nautical Twilight 4:38 AM IST 8:08 PM IST
Astronomical Twilight 4:06 AM IST 8:41 PM IST
Moon 8:07 AM IST (5/24) 9:58 PM IST (5/24)
Length of Visible Light 14h 28m
Length of Day
13h 37m
Waxing Crescent, 10% of the Moon is Illuminated
May 24
Waxing Crescent
May 29
First Quarter
Jun 4
Full
Jun 11
Last Quarter
Jun 19
New

Hourly Weather History & Observations

Time (IST) Temp. Heat Index Dew Point Humidity Pressure Visibility Wind Dir Wind Speed Gust Speed Precip Events Conditions
12:00 AM 91.4 °F 89.9 °F 57.2 °F 31% 29.65 in 2.5 mi Calm Calm - N/A   Haze
1:00 AM 89.6 °F 87.3 °F 53.6 °F 29% 29.65 in 2.5 mi WNW 3.5 mph - N/A   Haze
2:00 AM 87.8 °F 85.7 °F 53.6 °F 31% 29.65 in 2.5 mi WNW 5.8 mph - N/A   Haze
2:30 AM 87 °F - 54 °F 22% 29.55 in 2 mi NW 2.3 mph - -   Haze
3:00 AM 87.8 °F 85.7 °F 53.6 °F 31% 29.62 in 2.5 mi Variable 1.2 mph - N/A   Haze
4:00 AM 89.6 °F - 51.8 °F 27% 29.62 in 2.5 mi Variable 4.6 mph - N/A   Haze
5:00 AM 84.2 °F - 51.8 °F 33% 29.65 in 2.5 mi WNW 4.6 mph - N/A   Haze
7:00 AM 87.8 °F - 48.2 °F 25% 29.68 in 2.5 mi NNW 3.5 mph - N/A   Haze
8:00 AM 91.4 °F - 51.8 °F 26% 29.71 in 2.5 mi Variable 6.9 mph - N/A   Haze
8:30 AM 93 °F - 52 °F 16% 29.60 in 2 mi NW 4.6 mph - -   Haze
9:00 AM 95.0 °F 94.4 °F 59.0 °F 30% 29.71 in 2.5 mi Variable 5.8 mph - N/A   Haze
10:00 AM 98.6 °F 97.2 °F 55.4 °F 24% 29.71 in 2.5 mi Variable 6.9 mph - N/A   Haze
11:30 AM 103 °F - 44 °F 7% 29.57 in 2 mi NW 6.9 mph - -  
12:00 PM 104.0 °F - 51.8 °F 17% 29.68 in 3.7 mi Variable 5.8 mph - N/A   Unknown
1:00 PM 104.0 °F - 50.0 °F 16% 29.65 in 3.7 mi Variable 8.1 mph 20.7 mph N/A   Unknown
2:00 PM 105.8 °F - 48.2 °F 14% 29.62 in 3.7 mi Variable 10.4 mph - N/A   Unknown
2:30 PM 107 °F - 43 °F 6% 29.49 in 2 mi WNW 13.8 mph - -  
2:30 PM 107.6 °F - 50.0 °F 15% 29.59 in 3.7 mi WNW 15.0 mph - N/A   Unknown
3:00 PM 107.6 °F - 50.0 °F 15% 29.59 in 3.7 mi West 11.5 mph - N/A   Unknown
4:00 PM 107.6 °F - 50.0 °F 15% 29.56 in 3.7 mi NW 8.1 mph - N/A   Unknown
5:00 PM 105.8 °F - 48.2 °F 14% 29.56 in 3.7 mi Variable 8.1 mph - N/A   Unknown
5:30 PM 108 °F - 33 °F 4% 29.44 in 2 mi WNW 9.2 mph - -  
5:30 PM 105.8 °F - 48.2 °F 14% 29.56 in 3.7 mi WNW 10.4 mph - N/A   Unknown
7:00 PM 102.2 °F - 48.2 °F 16% 29.56 in 2.5 mi WNW 4.6 mph - N/A   Haze
7:30 PM 102.2 °F - 48.2 °F 16% 29.56 in 2.5 mi WNW 3.5 mph - N/A   Haze
8:00 PM 96.8 °F - 48.2 °F 19% 29.56 in 2.5 mi Variable 2.3 mph - N/A   Haze
8:30 PM 97 °F - 49 °F 12% 29.49 in 2 mi Calm Calm - -   Haze
9:00 PM 93.2 °F - 50.0 °F 23% 29.59 in 2.5 mi Calm Calm - N/A   Haze
10:30 PM 91.4 °F - 50.0 °F 24% 29.59 in 1.9 mi Calm Calm - N/A   Haze
11:00 PM 91.4 °F - 50.0 °F 24% 29.59 in 1.9 mi Calm Calm - N/A   Haze
11:30 PM 91 °F - 52 °F 17% 29.50 in 1 mi NW 4.6 mph - -   Haze